FW5313 Weather Reports


Display with metric or nautical units.
time (UTC)temp
F
wind
direction
speed
MPH
gust
MPH
rain 1hr
in
rain 24hr
in
rain mn
in
humidity
%
barometer
mb
20260904193101 69 12 1.0 4.0 0.00 0.01 0.01 76 1010.8
20260904192544 69 310 1.0 5.0 0.00 0.01 0.01 76 1010.8
20260904192044 69 87 1.0 5.0 0.00 0.01 0.01 73 1010.7
20260904191554 69 11 1.0 5.0 0.00 0.01 0.01 70 1010.9
20260904191045 70 314 1.0 3.0 0.00 0.01 0.01 72 1010.9
20260904190545 70 278 0.0 3.0 0.00 0.01 0.01 72 1010.9
20260904190057 70 68 0.0 3.0 0.00 0.01 0.01 71 1011.0
20260904185545 70 309 0.0 3.0 0.00 0.01 0.01 72 1011.1
20260904185049 70 315 1.0 3.0 0.00 0.01 0.01 72 1011.2
20260904184600 71 292 1.0 5.0 0.00 0.01 0.01 70 1011.0
20260904184045 72 304 2.0 5.0 0.00 0.01 0.01 67 1011.1
20260904183546 73 310 1.0 4.0 0.00 0.01 0.01 71 1010.9
20260904183107 73 299 1.0 4.0 0.00 0.01 0.01 68 1010.9
20260904182545 74 353 2.0 4.0 0.00 0.01 0.01 63 1010.9
20260904182044 75 293 1.0 5.0 0.00 0.01 0.01 64 1011.0
20260904181559 75 267 1.0 5.0 0.00 0.01 0.01 66 1010.9
20260904181048 75 0 1.0 5.0 0.00 0.01 0.01 64 1010.8
20260904180545 73 248 1.0 6.0 0.00 0.01 0.01 76 1010.9
20260904180107 71 303 1.0 6.0 0.00 0.01 0.01 68 1010.9
20260904175546 70 30 1.0 6.0 0.00 0.01 0.01 67 1010.9
20260904175044 70 0 1.0 4.0 0.00 0.01 0.01 71 1011.1
20260904174608 71 20 1.0 3.0 0.00 0.01 0.01 72 1011.1
20260904174045 71 263 1.0 2.0 0.00 0.01 0.01 69 1011.2
20260904173546 72 251 1.0 4.0 0.00 0.01 0.01 66 1011.0
20260904173116 72 307 1.0 7.0 0.00 0.01 0.01 64 1010.9
20260904172546 73 32 1.0 7.0 0.00 0.01 0.01 64 1011.0
20260904172044 73 44 1.0 5.0 0.00 0.01 0.01 66 1010.9
20260904171606 73 195 0.0 2.0 0.00 0.01 0.01 71 1010.9
20260904171044 72 0 0.0 3.0 0.00 0.01 0.01 72 1011.1
20260904170545 72 202 1.0 3.0 0.00 0.01 0.01 69 1011.0
20260904170108 70 309 1.0 7.0 0.00 0.01 0.01 71 1011.1
20260904165546 70 312 2.0 7.0 0.00 0.01 0.01 68 1011.2
20260904165046 71 123 2.0 7.0 0.00 0.01 0.01 70 1011.2
20260904164613 70 100 0.0 10.0 0.00 0.01 0.01 76 1011.1
20260904164044 70 302 2.0 10.0 0.00 0.01 0.01 74 1011.3
20260904163542 71 110 2.0 6.0 0.00 0.01 0.01 70 1011.3
20260904163101 72 322 2.0 6.0 0.00 0.01 0.01 65 1011.1
20260904162546 72 325 2.0 6.0 0.00 0.01 0.01 68 1011.2
20260904162046 72 134 2.0 5.0 0.00 0.01 0.01 68 1011.2
20260904161559 72 347 2.0 5.0 0.00 0.01 0.01 70 1011.3
20260904161046 73 323 1.0 4.0 0.00 0.01 0.01 67 1011.3
20260904160545 72 18 2.0 5.0 0.00 0.01 0.01 73 1011.3
20260904160108 72 320 1.0 5.0 0.00 0.01 0.01 79 1011.3
20260904155545 71 229 2.0 5.0 0.00 0.01 0.01 72 1011.4
20260904155045 71 100 1.0 5.0 0.00 0.01 0.01 73 1011.4
20260904154604 71 352 1.0 5.0 0.00 0.01 0.01 78 1011.5
20260904154044 70 309 1.0 4.0 0.00 0.01 0.01 79 1011.5
20260904153544 69 28 1.0 4.0 0.00 0.01 0.01 73 1011.5
20260904153104 69 206 1.0 5.0 0.00 0.01 0.01 72 1011.6
20260904152544 69 309 1.0 5.0 0.00 0.01 0.01 78 1011.5
20260904152049 68 299 1.0 5.0 0.00 0.01 0.01 73 1011.5
20260904151557 68 295 1.0 5.0 0.00 0.01 0.01 81 1011.5
20260904151045 68 336 1.0 4.0 0.00 0.01 0.01 79 1011.5
20260904150545 67 289 1.0 4.0 0.00 0.01 0.01 79 1011.7
20260904145545 67 302 1.0 4.0 0.00 0.01 0.01 80 1011.6
20260904145045 67 260 0.0 2.0 0.00 0.01 0.01 85 1011.5
20260904144613 67 299 1.0 3.0 0.00 0.01 0.01 84 1011.6
20260904144045 67 110 1.0 3.0 0.00 0.01 0.01 85 1011.6
20260904143548 66 324 0.0 3.0 0.00 0.01 0.01 83 1011.5
20260904143102 66 322 0.0 2.0 0.00 0.01 0.01 87 1011.5
20260904142545 66 11 0.0 2.0 0.00 0.01 0.01 86 1011.4
20260904142045 65 30 1.0 3.0 0.00 0.01 0.01 86 1011.4
20260904141604 65 327 0.0 3.0 0.00 0.01 0.01 88 1011.5
20260904141044 65 0 0.0 1.0 0.00 0.01 0.01 88 1011.6
20260904140544 65 0 0.0 1.0 0.00 0.01 0.01 89 1011.6
20260904140106 65 75 0.0 2.0 0.00 0.01 0.01 89 1011.5
20260904135546 65 0 1.0 2.0 0.00 0.01 0.01 87 1011.5
20260904135046 65 0 0.0 2.0 0.00 0.01 0.01 89 1011.4
20260904134608 64 0 0.0 3.0 0.00 0.01 0.01 90 1011.5
20260904134045 64 0 0.0 3.0 0.00 0.01 0.01 90 1011.4
20260904133545 63 17 0.0 3.0 0.00 0.01 0.01 88 1011.5
20260904133100 63 98 0.0 3.0 0.00 0.01 0.01 92 1011.5
20260904132545 63 0 0.0 1.0 0.00 0.01 0.01 92 1011.5
20260904132044 62 0 0.0 2.0 0.00 0.01 0.01 93 1011.4
20260904131557 62 161 0.0 2.0 0.00 0.01 0.01 93 1011.5
20260904131045 62 212 0.0 2.0 0.00 0.01 0.01 92 1011.5
20260904130544 61 0 0.0 2.0 0.00 0.01 0.01 93 1011.4
20260904130057 61 116 0.0 1.0 0.00 0.01 0.01 93 1011.3
20260904125545 61 139 0.0 2.0 0.00 0.01 0.01 93 1011.4
20260904125043 61 0 0.0 2.0 0.00 0.01 0.01 94 1011.4
20260904124603 61 140 0.0 1.0 0.00 0.01 0.01 94 1011.5
20260904124048 60 0 0.0 1.0 0.00 0.01 0.01 94 1011.5
20260904123545 60 0 0.0 1.0 0.00 0.01 0.01 95 1011.7
20260904123102 60 0 0.0 1.0 0.00 0.01 0.01 96 1011.5
20260904122545 60 0 0.0 1.0 0.00 0.01 0.01 96 1011.6
20260904122045 59 0 0.0 0.0 0.00 0.01 0.01 96 1011.6
20260904121556 59 0 0.0 0.0 0.00 0.01 0.01 96 1011.7
20260904121044 59 0 0.0 1.0 0.00 0.01 0.01 96 1011.6
20260904120547 59 0 0.0 1.0 0.00 0.01 0.01 96 1011.6
20260904120058 59 0 0.0 1.0 0.00 0.01 0.01 96 1011.6
20260904115545 59 0 0.0 0.0 0.00 0.02 0.01 96 1011.5
20260904115045 59 0 0.0 0.0 0.00 0.02 0.01 96 1011.6
20260904114558 59 0 0.0 0.0 0.00 0.02 0.01 96 1011.5
20260904114045 59 0 0.0 0.0 0.00 0.02 0.01 95 1011.5
20260904113545 59 0 0.0 0.0 0.00 0.02 0.01 95 1011.5
20260904113058 59 0 0.0 1.0 0.00 0.02 0.01 95 1011.5
20260904112542 60 0 0.0 1.0 0.00 0.02 0.01 95 1011.3
20260904112049 59 0 0.0 1.0 0.00 0.02 0.01 95 1011.3
20260904111611 59 0 0.0 1.0 0.00 0.02 0.01 95 1011.3
20260904111044 59 95 0.0 0.0 0.00 0.02 0.01 95 1011.3
20260904110546 59 0 0.0 1.0 0.00 0.02 0.01 95 1011.3
20260904105545 59 0 0.0 0.0 0.00 0.02 0.01 95 1011.2
20260904105045 59 0 0.0 0.0 0.00 0.02 0.01 96 1011.2
20260904104600 59 0 0.0 0.0 0.00 0.02 0.01 96 1011.1
20260904104044 59 0 0.0 0.0 0.00 0.02 0.01 95 1011.2
20260904103544 59 0 0.0 0.0 0.00 0.02 0.01 95 1011.2
20260904103056 59 0 0.0 0.0 0.00 0.02 0.01 94 1011.1
20260904102545 59 0 0.0 1.0 0.00 0.02 0.01 94 1011.1
20260904102044 60 0 0.0 1.0 0.00 0.02 0.01 94 1010.9
20260904101600 60 0 0.0 1.0 0.00 0.02 0.01 93 1011.0
20260904101047 60 0 0.0 1.0 0.00 0.02 0.01 94 1010.9
20260904100545 60 0 0.0 1.0 0.00 0.02 0.01 94 1010.9
20260904100103 60 0 0.0 1.0 0.00 0.02 0.01 94 1010.9
20260904095545 60 95 0.0 1.0 0.00 0.02 0.01 94 1010.9
20260904095046 60 0 0.0 1.0 0.00 0.02 0.01 94 1010.8
20260904094611 59 0 0.0 1.0 0.00 0.02 0.01 94 1010.8
20260904094044 59 95 0.0 0.0 0.00 0.02 0.01 94 1010.8
20260904093547 59 0 0.0 1.0 0.00 0.02 0.01 94 1010.8
20260904093103 60 0 0.0 1.0 0.01 0.02 0.01 94 1010.7
20260904092544 59 0 0.0 0.0 0.01 0.02 0.01 94 1010.7
20260904092043 59 0 0.0 1.0 0.01 0.02 0.01 94 1010.6
20260904091601 60 0 0.0 1.0 0.01 0.02 0.01 94 1010.6
20260904091044 59 0 0.0 1.0 0.01 0.02 0.01 94 1010.5
20260904090544 59 0 0.0 0.0 0.01 0.02 0.01 93 1010.6
20260904090101 59 0 0.0 0.0 0.01 0.02 0.01 93 1010.6
20260904085545 59 0 0.0 0.0 0.01 0.03 0.01 93 1010.5
20260904085045 59 0 0.0 0.0 0.01 0.03 0.01 93 1010.5
20260904084558 59 0 0.0 1.0 0.01 0.03 0.01 93 1010.6
20260904084046 59 0 0.0 1.0 0.01 0.03 0.01 94 1010.6
20260904083545 59 0 0.0 0.0 0.01 0.03 0.01 93 1010.7
20260904083103 59 0 0.0 0.0 0.00 0.02 0.00 93 1010.6
20260904082544 59 0 0.0 0.0 0.00 0.02 0.00 93 1010.7
20260904082040 59 0 0.0 0.0 0.00 0.02 0.00 92 1010.6
20260904081636 60 0 0.0 0.0 0.00 0.02 0.00 93 1010.6
20260904081041 60 0 0.0 0.0 0.00 0.02 0.00 93 1010.6
20260904080547 59 0 0.0 0.0 0.00 0.02 0.00 93 1010.6
20260904080101 60 0 0.0 0.0 0.00 0.02 0.00 93 1010.5
20260904075549 60 0 0.0 0.0 0.00 0.05 0.00 93 1010.6
20260904075046 60 0 0.0 0.0 0.00 0.05 0.00 93 1010.4
20260904074608 60 0 0.0 1.0 0.00 0.05 0.00 93 1010.5
20260904074047 60 0 0.0 1.0 0.00 0.05 0.00 92 1010.6
20260904073545 60 0 0.0 1.0 0.00 0.05 0.00 91 1010.6
20260904073108 60 0 0.0 1.0 0.00 0.05 0.00 92 1010.5
20260904072544 60 0 0.0 1.0 0.00 0.05 0.00 92 1010.5
20260904072045 60 0 0.0 0.0 0.00 0.05 0.00 92 1010.5
20260904071602 59 0 0.0 0.0 0.00 0.05 0.00 93 1010.6
20260904071045 60 0 0.0 0.0 0.00 0.05 0.00 94 1010.6
20260904070545 60 0 0.0 0.0 0.00 0.05 0.00 94 1010.7
20260904070122 60 0 0.0 0.0 0.00 0.05 0.00 95 1010.7
20260904065544 60 0 0.0 0.0 0.00 0.05 0.00 95 1010.8
20260904065044 60 0 0.0 0.0 0.00 0.05 0.00 95 1010.8
20260904064559 60 0 0.0 0.0 0.00 0.05 0.00 95 1010.8
20260904064044 60 0 0.0 0.0 0.00 0.05 0.00 95 1011.0
20260904063545 60 0 0.0 0.0 0.00 0.05 0.00 94 1010.9
20260904063101 60 0 0.0 0.0 0.00 0.05 0.00 94 1010.9
20260904062545 60 0 0.0 0.0 0.00 0.05 0.00 93 1011.1
20260904062044 60 0 0.0 0.0 0.00 0.05 0.00 93 1011.2
20260904061604 60 0 0.0 0.0 0.00 0.05 0.00 94 1011.1
20260904061045 60 0 0.0 0.0 0.00 0.05 0.00 94 1011.1
20260904060547 60 0 0.0 0.0 0.00 0.05 0.00 94 1011.3
20260904060106 60 0 0.0 0.0 0.00 0.05 0.00 94 1011.4
20260904055544 60 0 0.0 0.0 0.00 0.21 0.00 93 1011.3
20260904055048 60 0 0.0 0.0 0.00 0.21 0.00 93 1011.4
20260904054607 60 0 0.0 1.0 0.00 0.21 0.00 94 1011.3
20260904054045 60 0 0.0 1.0 0.00 0.21 0.00 94 1011.3
20260904053544 60 0 0.0 1.0 0.00 0.21 0.00 94 1011.4
20260904053104 60 0 0.0 0.0 0.00 0.21 0.00 95 1011.5
20260904052545 60 0 0.0 0.0 0.00 0.21 0.00 95 1011.5
20260904052045 60 0 0.0 1.0 0.00 0.21 0.00 94 1011.5
20260904051558 60 0 0.0 1.0 0.00 0.21 0.00 94 1011.6
20260904051044 60 0 0.0 0.0 0.00 0.21 0.00 93 1011.6
20260904050547 60 0 0.0 0.0 0.00 0.21 0.00 95 1011.6
20260904050105 60 0 0.0 0.0 0.00 0.21 0.00 94 1011.6
20260904045541 60 0 0.0 0.0 0.00 0.21 0.00 93 1011.6
20260904045047 60 0 0.0 0.0 0.00 0.21 0.00 94 1011.6
20260904044603 61 0 0.0 0.0 0.00 0.21 0.00 94 1011.7
20260904044043 60 0 0.0 1.0 0.00 0.21 0.00 94 1011.8
20260904043544 60 0 0.0 1.0 0.00 0.21 0.00 94 1011.8
20260904043112 60 0 0.0 0.0 0.00 0.21 0.00 94 1011.9
20260904042545 60 0 0.0 0.0 0.00 0.21 0.00 95 1011.9
20260904042046 60 0 0.0 0.0 0.00 0.21 0.00 95 1012.1
20260904041554 60 0 0.0 0.0 0.00 0.21 0.00 94 1012.1
20260904041044 60 0 0.0 0.0 0.00 0.21 0.00 94 1012.1
20260904040544 60 0 0.0 0.0 0.00 0.21 0.00 95 1012.1
20260904040058 61 0 0.0 0.0 0.00 0.21 0.00 95 1012.1
20260904035543 60 0 0.0 0.0 0.00 0.21 0.21 95 1012.1
20260904035043 60 0 0.0 0.0 0.00 0.21 0.21 95 1012.2
20260904034558 60 0 0.0 0.0 0.00 0.21 0.21 95 1012.1
20260904034044 61 0 0.0 0.0 0.00 0.21 0.21 96 1012.2
20260904033545 61 0 0.0 1.0 0.00 0.21 0.21 95 1012.1
20260904033057 61 0 0.0 1.0 0.00 0.21 0.21 95 1012.1
20260904032544 61 0 0.0 0.0 0.00 0.21 0.21 95 1012.1
20260904032044 61 0 0.0 0.0 0.00 0.21 0.21 95 1012.0
20260904031558 61 0 0.0 0.0 0.00 0.21 0.21 95 1012.1
20260904031044 61 0 0.0 0.0 0.00 0.21 0.21 95 1012.2
20260904030544 61 0 0.0 1.0 0.00 0.21 0.21 94 1012.2
20260904030100 61 0 0.0 1.0 0.00 0.21 0.21 94 1012.2
20260904025544 61 0 0.0 1.0 0.00 0.21 0.21 94 1012.2
20260904025041 61 0 0.0 1.0 0.00 0.21 0.21 93 1012.2
20260904024605 61 0 0.0 1.0 0.00 0.21 0.21 92 1012.2
20260904024045 61 0 0.0 1.0 0.00 0.21 0.21 93 1012.2
20260904023544 61 0 0.0 1.0 0.00 0.21 0.21 93 1012.3
20260904023058 62 95 0.0 1.0 0.00 0.21 0.21 93 1012.2
20260904022544 62 95 0.0 1.0 0.00 0.21 0.21 92 1012.3
20260904022044 62 0 0.0 2.0 0.00 0.21 0.21 92 1012.3
20260904021557 62 95 0.0 2.0 0.00 0.21 0.21 92 1012.3
20260904021044 61 95 1.0 2.0 0.00 0.21 0.21 91 1012.3
20260904020544 61 95 0.0 1.0 0.00 0.21 0.21 93 1012.3
20260904020101 61 0 0.0 0.0 0.00 0.21 0.21 94 1012.3
20260904015540 61 0 0.0 0.0 0.00 0.21 0.21 93 1012.4
20260904015044 61 0 0.0 0.0 0.00 0.21 0.21 94 1012.7
20260904014642 62 0 0.0 0.0 0.00 0.21 0.21 94 1012.5
20260904014045 62 0 0.0 0.0 0.00 0.21 0.21 93 1012.5
20260904013547 62 0 0.0 1.0 0.00 0.21 0.21 93 1012.5
20260904013059 62 0 0.0 1.0 0.00 0.21 0.21 92 1012.4
20260904012545 62 94 0.0 1.0 0.00 0.21 0.21 92 1012.3
20260904012044 62 0 0.0 1.0 0.00 0.21 0.21 92 1012.4
20260904011602 62 0 0.0 1.0 0.00 0.21 0.21 92 1012.3
20260904011049 62 94 0.0 2.0 0.00 0.21 0.21 92 1012.3
20260904010545 62 94 0.0 2.0 0.00 0.21 0.21 93 1012.3
20260904010100 62 0 0.0 2.0 0.00 0.21 0.21 94 1012.2
20260904005544 62 0 0.0 2.0 0.00 0.21 0.21 93 1012.2
20260904005046 62 0 0.0 2.0 0.00 0.21 0.21 94 1012.2
20260904004604 62 94 0.0 2.0 0.00 0.21 0.21 95 1012.1
20260904004044 62 98 0.0 1.0 0.00 0.21 0.21 95 1012.0
20260904003544 62 0 0.0 1.0 0.00 0.21 0.21 95 1012.1
20260904003100 62 0 0.0 1.0 0.00 0.21 0.21 96 1012.1
20260904002544 62 0 0.0 1.0 0.00 0.21 0.21 95 1012.0
20260904002044 62 0 0.0 1.0 0.00 0.21 0.21 96 1011.8
20260904001602 63 0 0.0 1.0 0.00 0.21 0.21 96 1011.6
20260904001044 63 0 0.0 1.0 0.00 0.21 0.21 96 1011.6
20260904000546 63 0 0.0 1.0 0.00 0.21 0.21 96 1011.6
20260904000140 63 98 0.0 0.0 0.00 0.21 0.21 96 1011.4
20260903235545 63 0 0.0 0.0 0.00 0.21 0.21 95 1011.6
20260903235044 63 0 0.0 0.0 0.00 0.21 0.21 95 1011.6
20260903234558 63 0 0.0 0.0 0.00 0.21 0.21 95 1011.4
20260903234045 64 0 0.0 1.0 0.00 0.21 0.21 95 1011.2
20260903233545 64 0 0.0 1.0 0.00 0.21 0.21 95 1011.2
20260903233057 64 0 0.0 0.0 0.00 0.21 0.21 95 1011.3
20260903232544 64 0 0.0 1.0 0.00 0.21 0.21 94 1011.3
20260903232048 65 0 0.0 1.0 0.00 0.21 0.21 94 1011.2
20260903231618 65 0 0.0 3.0 0.00 0.21 0.21 94 1011.2
20260903231044 65 0 0.0 3.0 0.00 0.21 0.21 93 1011.0
20260903230544 65 0 0.0 1.0 0.00 0.21 0.21 95 1011.1
20260903230105 66 0 0.0 1.0 0.00 0.21 0.21 95 1011.2
20260903225545 66 0 0.0 0.0 0.00 0.21 0.21 95 1011.3
20260903225044 66 0 0.0 0.0 0.00 0.21 0.21 95 1011.2
20260903224602 66 0 0.0 1.0 0.00 0.21 0.21 95 1011.3
20260903224044 66 0 0.0 1.0 0.00 0.21 0.21 95 1011.3
20260903223545 66 0 0.0 1.0 0.00 0.21 0.21 95 1011.3
20260903223053 66 0 0.0 1.0 0.00 0.21 0.21 95 1011.5
20260903222551 66 0 0.0 1.0 0.00 0.21 0.21 96 1011.4
20260903222045 66 0 0.0 1.0 0.00 0.21 0.21 95 1011.3
20260903221559 66 0 0.0 1.0 0.00 0.21 0.21 96 1011.3
20260903221044 65 354 0.0 1.0 0.00 0.21 0.21 96 1011.5
20260903220545 65 0 0.0 1.0 0.00 0.21 0.21 95 1011.5
20260903220112 65 0 0.0 1.0 0.00 0.21 0.21 95 1011.6
20260903215545 65 356 0.0 1.0 0.00 0.21 0.21 95 1011.6
20260903215046 65 0 0.0 1.0 0.00 0.21 0.21 95 1011.7
20260903214602 65 0 0.0 1.0 0.00 0.21 0.21 95 1011.5
20260903214045 65 0 0.0 1.0 0.00 0.21 0.21 94 1011.5
20260903213545 66 0 0.0 1.0 0.00 0.21 0.21 94 1011.5
20260903213057 66 0 0.0 1.0 0.00 0.21 0.21 94 1011.6
20260903212545 66 0 0.0 1.0 0.00 0.21 0.21 94 1011.7
20260903212045 66 0 0.0 1.0 0.00 0.21 0.21 94 1011.6
20260903211559 67 0 0.0 1.0 0.00 0.21 0.21 95 1011.7
20260903211044 67 0 0.0 1.0 0.00 0.21 0.21 95 1011.6
20260903210544 67 340 0.0 0.0 0.00 0.21 0.21 95 1011.7
20260903210055 67 0 0.0 1.0 0.00 0.21 0.21 94 1011.7
20260903205544 67 0 0.0 1.0 0.00 0.21 0.21 94 1011.6
20260903205045 67 0 0.0 0.0 0.00 0.21 0.21 94 1011.5
20260903204552 67 0 0.0 1.0 0.00 0.21 0.21 94 1011.5
20260903204044 67 0 0.0 1.0 0.00 0.21 0.21 94 1011.5
20260903203548 68 0 0.0 2.0 0.00 0.21 0.21 93 1011.4
20260903203057 68 0 0.0 2.0 0.00 0.21 0.21 93 1011.5
20260903202544 68 0 0.0 1.0 0.00 0.21 0.21 92 1011.5
20260903202045 69 0 0.0 1.0 0.00 0.21 0.21 92 1011.5
20260903201601 69 0 0.0 1.0 0.00 0.21 0.21 91 1011.5
20260903201044 70 0 0.0 0.0 0.00 0.21 0.21 90 1011.6
20260903200546 71 0 0.0 0.0 0.00 0.21 0.21 90 1011.6
20260903200055 72 0 0.0 0.0 0.00 0.21 0.21 89 1011.6
20260903195545 73 0 0.0 0.0 0.00 0.21 0.21 87 1011.6
20260903195045 74 0 0.0 0.0 0.00 0.21 0.21 86 1011.5
20260903194559 75 0 0.0 0.0 0.00 0.21 0.21 86 1011.6
20260903194044 75 0 0.0 1.0 0.00 0.21 0.21 85 1011.6
20260903193547 75 0 0.0 1.0 0.00 0.21 0.21 86 1011.7